• In Deutschland
  • Länderverzeichnis
  • Für 7 Tage
  • Wassertemperatur
  • Satellitenkarten
  • Wetterkarte
  • Widgets
  • user-avatar
    Anmelden

    Stündliche Wetter Meckenheim

    Heute, 21 August, Dienstag

    Zeit Temperatur Niederschläge Wind Luftdruck Luftfeuchtigkeit
    00:00 +18°C° 0 mm 0 m/S 749 mmHg 89%
    01:00 +18°C° 0 mm 0 m/S 749 mmHg 88%
    02:00 +18°C° 0 mm 0 m/S 749 mmHg 88%
    03:00 +17°C° 0 mm 0 m/S 749 mmHg 88%
    04:00 +18°C° 0 mm 0 m/S 749 mmHg 87%
    05:00 +18°C° 0 mm 0 m/S 749 mmHg 86%
    06:00 +19°C° 0 mm 0 m/S 749 mmHg 84%
    07:00 +20°C° 0,2 mm 0 m/S 749 mmHg 81%
    08:00 +20°C° 0,2 mm 0 m/S 749 mmHg 77%
    09:00 +21°C° 0,2 mm 0 m/S 749 mmHg 74%
    10:00 +22°C° 0,1 mm 0 m/S 749 mmHg 70%
    11:00 +23°C° 0,1 mm 0 m/S 749 mmHg 66%
    12:00 +24°C° 0,1 mm 0 m/S 749 mmHg 62%
    13:00 +26°C° 0,1 mm 1 m/S 748 mmHg 60%
    14:00 +27°C° 0,1 mm 1 m/S 748 mmHg 58%
    15:00 +27°C° 0,1 mm 1 m/S 748 mmHg 56%
    16:00 +26°C° 0 mm 1 m/S 748 mmHg 60%
    17:00 +25°C° 0 mm 1 m/S 748 mmHg 64%
    18:00 +24°C° 0 mm 1 m/S 747 mmHg 68%
    19:00 +23°C° 0 mm 1 m/S 748 mmHg 70%
    20:00 +22°C° 0 mm 1 m/S 748 mmHg 72%
    21:00 +21°C° 0 mm 1 m/S 748 mmHg 75%
    22:00 +20°C° 0 mm 1 m/S 748 mmHg 77%
    23:00 +20°C° 0 mm 1 m/S 748 mmHg 79%

    Morgen, 22 August, Mittwoch

    Zeit Temperatur Niederschläge Wind Luftdruck Luftfeuchtigkeit
    00:00 +19°C° 0 mm 1 m/S 748 mmHg 81%
    01:00 +19°C° 0 mm 1 m/S 748 mmHg 81%
    02:00 +19°C° 0 mm 1 m/S 747 mmHg 82%
    03:00 +19°C° 0 mm 1 m/S 747 mmHg 83%
    04:00 +19°C° 0 mm 1 m/S 747 mmHg 81%
    05:00 +20°C° 0 mm 1 m/S 747 mmHg 79%
    06:00 +21°C° 0 mm 1 m/S 747 mmHg 77%
    07:00 +23°C° 0 mm 1 m/S 747 mmHg 70%
    08:00 +25°C° 0 mm 1 m/S 747 mmHg 62%
    09:00 +27°C° 0 mm 1 m/S 747 mmHg 55%
    10:00 +28°C° 0 mm 1 m/S 747 mmHg 53%
    11:00 +29°C° 0 mm 1 m/S 747 mmHg 50%
    12:00 +30°C° 0 mm 1 m/S 746 mmHg 47%
    13:00 +30°C° 0 mm 1 m/S 746 mmHg 49%
    14:00 +29°C° 0 mm 1 m/S 746 mmHg 50%
    15:00 +29°C° 0 mm 1 m/S 746 mmHg 51%
    16:00 +28°C° 0,1 mm 1 m/S 746 mmHg 57%
    17:00 +27°C° 0,1 mm 1 m/S 745 mmHg 62%
    18:00 +26°C° 0,1 mm 1 m/S 745 mmHg 67%
    19:00 +24°C° 0 mm 1 m/S 746 mmHg 71%
    20:00 +23°C° 0 mm 1 m/S 746 mmHg 75%
    21:00 +22°C° 0 mm 1 m/S 746 mmHg 79%
    22:00 +21°C° 0 mm 1 m/S 746 mmHg 81%
    23:00 +21°C° 0 mm 1 m/S 746 mmHg 83%

    übermorgen, 23 August, Donnerstag

    Zeit Temperatur Niederschläge Wind Luftdruck Luftfeuchtigkeit
    00:00 +20°C° 0 mm 1 m/S 746 mmHg 85%
    01:00 +20°C° 0 mm 1 m/S 746 mmHg 87%
    02:00 +19°C° 0 mm 1 m/S 745 mmHg 89%
    03:00 +19°C° 0 mm 1 m/S 745 mmHg 90%
    04:00 +18°C° 0 mm 0 m/S 745 mmHg 88%
    05:00 +18°C° 0 mm 0 m/S 745 mmHg 86%
    06:00 +19°C° 0 mm 0 m/S 745 mmHg 85%
    07:00 +23°C° 0 mm 1 m/S 745 mmHg 76%
    08:00 +25°C° 0 mm 1 m/S 745 mmHg 68%
    09:00 +27°C° 0 mm 1 m/S 745 mmHg 60%
    10:00 +27°C° 0 mm 2 m/S 745 mmHg 56%
    11:00 +28°C° 0 mm 2 m/S 744 mmHg 52%
    12:00 +29°C° 0 mm 2 m/S 744 mmHg 48%
    13:00 +29°C° 0 mm 3 m/S 743 mmHg 48%
    14:00 +29°C° 0 mm 3 m/S 743 mmHg 48%
    15:00 +29°C° 0 mm 3 m/S 742 mmHg 48%
    16:00 +28°C° 0,3 mm 3 m/S 742 mmHg 55%
    17:00 +26°C° 0,3 mm 2 m/S 742 mmHg 62%
    18:00 +25°C° 0,3 mm 2 m/S 742 mmHg 69%
    19:00 +23°C° 0,1 mm 2 m/S 742 mmHg 75%
    20:00 +21°C° 0,1 mm 2 m/S 743 mmHg 80%
    21:00 +20°C° 0,1 mm 2 m/S 743 mmHg 86%
    22:00 +19°C° 0 mm 2 m/S 743 mmHg 88%
    23:00 +18°C° 0 mm 2 m/S 742 mmHg 90%

    24 August, Freitag

    Zeit Temperatur Niederschläge Wind Luftdruck Luftfeuchtigkeit
    00:00 +18°C° 0 mm 2 m/S 742 mmHg 93%
    01:00 +18°C° 0,1 mm 2 m/S 742 mmHg 93%
    02:00 +17°C° 0,1 mm 2 m/S 742 mmHg 93%
    03:00 +17°C° 0,1 mm 2 m/S 742 mmHg 93%
    04:00 +17°C° 0 mm 2 m/S 742 mmHg 91%
    05:00 +16°C° 0 mm 3 m/S 742 mmHg 89%
    06:00 +16°C° 0 mm 3 m/S 742 mmHg 88%
    07:00 +17°C° 0 mm 3 m/S 742 mmHg 80%
    08:00 +18°C° 0 mm 4 m/S 742 mmHg 72%
    09:00 +20°C° 0 mm 4 m/S 742 mmHg 65%
    10:00 +20°C° 0,1 mm 5 m/S 742 mmHg 61%
    11:00 +20°C° 0,1 mm 5 m/S 742 mmHg 58%
    12:00 +21°C° 0,1 mm 5 m/S 742 mmHg 55%
    13:00 +20°C° 0 mm 5 m/S 742 mmHg 54%
    14:00 +19°C° 0 mm 5 m/S 742 mmHg 54%
    15:00 +17°C° 0 mm 5 m/S 743 mmHg 54%
    16:00 +18°C° 0 mm 4 m/S 743 mmHg 56%
    17:00 +17°C° 0 mm 3 m/S 743 mmHg 57%
    18:00 +16°C° 0 mm 3 m/S 743 mmHg 58%
    19:00 +15°C° 0 mm 2 m/S 743 mmHg 61%
    20:00 +14°C° 0 mm 2 m/S 744 mmHg 64%
    21:00 +13°C° 0 mm 2 m/S 744 mmHg 67%
    22:00 +12°C° 0 mm 2 m/S 744 mmHg 70%
    23:00 +12°C° 0 mm 2 m/S 744 mmHg 73%

    25 August, Samstag

    Zeit Temperatur Niederschläge Wind Luftdruck Luftfeuchtigkeit
    00:00 +10°C° 0 mm 2 m/S 744 mmHg 76%
    01:00 +9°C° 0 mm 2 m/S 744 mmHg 79%
    02:00 +9°C° 0 mm 2 m/S 744 mmHg 82%
    03:00 +8°C° 0 mm 2 m/S 743 mmHg 84%
    04:00 +9°C° 0 mm 2 m/S 744 mmHg 83%
    05:00 +9°C° 0 mm 2 m/S 744 mmHg 81%
    06:00 +10°C° 0 mm 2 m/S 744 mmHg 80%
    07:00 +11°C° 0,1 mm 3 m/S 744 mmHg 72%
    08:00 +13°C° 0,1 mm 3 m/S 744 mmHg 65%
    09:00 +16°C° 0,1 mm 3 m/S 744 mmHg 57%
    10:00 +17°C° 0,3 mm 3 m/S 743 mmHg 54%
    11:00 +17°C° 0,3 mm 3 m/S 743 mmHg 50%
    12:00 +18°C° 0,3 mm 3 m/S 743 mmHg 47%
    13:00 +18°C° 0,3 mm 3 m/S 742 mmHg 49%
    14:00 +18°C° 0,3 mm 3 m/S 742 mmHg 51%
    15:00 +17°C° 0,3 mm 3 m/S 742 mmHg 53%
    16:00 +16°C° 0,2 mm 2 m/S 742 mmHg 57%
    17:00 +15°C° 0,2 mm 2 m/S 742 mmHg 62%
    18:00 +14°C° 0,2 mm 2 m/S 742 mmHg 67%
    19:00 +13°C° 0,1 mm 2 m/S 743 mmHg 72%
    20:00 +12°C° 0,1 mm 2 m/S 743 mmHg 77%
    21:00 +10°C° 0,1 mm 2 m/S 743 mmHg 82%
    22:00 +10°C° 0 mm 2 m/S 744 mmHg 85%
    23:00 +9°C° 0 mm 2 m/S 744 mmHg 88%

    26 August, Sonntag

    Zeit Temperatur Niederschläge Wind Luftdruck Luftfeuchtigkeit
    00:00 +9°C° 0 mm 2 m/S 744 mmHg 91%
    01:00 +9°C° 0 mm 2 m/S 745 mmHg 92%
    02:00 +8°C° 0 mm 2 m/S 745 mmHg 93%
    03:00 +9°C° 0 mm 1 m/S 745 mmHg 94%
    04:00 +10°C° 0 mm 1 m/S 745 mmHg 93%
    05:00 +10°C° 0 mm 1 m/S 746 mmHg 91%
    06:00 +11°C° 0 mm 1 m/S 746 mmHg 90%
    07:00 +12°C° 0 mm 1 m/S 746 mmHg 80%
    08:00 +14°C° 0 mm 2 m/S 747 mmHg 71%
    09:00 +16°C° 0 mm 2 m/S 747 mmHg 61%
    10:00 +17°C° 0 mm 2 m/S 747 mmHg 55%
    11:00 +19°C° 0 mm 2 m/S 746 mmHg 48%
    12:00 +21°C° 0 mm 1 m/S 746 mmHg 42%
    13:00 +20°C° 0 mm 2 m/S 746 mmHg 41%
    14:00 +20°C° 0 mm 2 m/S 746 mmHg 41%
    15:00 +19°C° 0 mm 2 m/S 746 mmHg 41%
    16:00 +19°C° 0 mm 1 m/S 746 mmHg 46%
    17:00 +18°C° 0 mm 1 m/S 746 mmHg 51%
    18:00 +15°C° 0 mm 0 m/S 746 mmHg 56%
    19:00 +14°C° 0 mm 0 m/S 746 mmHg 58%
    20:00 +13°C° 0 mm 1 m/S 746 mmHg 61%
    21:00 +12°C° 0 mm 1 m/S 746 mmHg 63%
    22:00 +12°C° 0 mm 1 m/S 746 mmHg 65%
    23:00 +12°C° 0 mm 1 m/S 746 mmHg 66%
    Mehr zeigen